Location: Burla
(50.9568°N, 10.4983°E)
Time: 21:35:50
(UTC+00:00)

FengYun 1-2 T - Pass Details

Date: 18 January 2026
Orbit: 844 x 880 km, 98.8° (Epoch: 18 February)

Event Time Altitude Azimuth Distance (km) Brightness Sun altitude
Rises 04:55:16 0° 11° (NNE) 3,462 7.4 -20.9°
Reaches altitude 10° 04:57:44 10° 6° (N) 2,515 6.6 -20.6°
Maximum altitude 05:03:03 47° 295° (WNW) 1,130 4.4 -19.7°
Enters shadow 05:06:44 19° 230° (SW) 1,924 5.7 -19.1°
